NPV4227 LIRN-LIMJ

Flight info

Callsign NPV4227
Flight time 0h 58m
Altitude 34000
Route VEXUV DCT PNZ DCT LUNAK DCT RAVAL DCT ELB DCT NORNI DCT BETEN M729 IDONA
Aircraft B738/M-SDE2E3FGHIRWXY/LB1

Departure

Time 2026-04-23 17:56
Airport Naples International Airport (LIRN)

Arrival

Time 2026-04-23 18:54
Airport Genoa Cristoforo Colombo Airport (LIMJ)
Time Latitude Longitude Altitude Speed Heading
2026-04-23 17:26 40.88170 14.28669 280 ft 0 kts 328°
2026-04-23 17:47 40.88167 14.28671 280 ft 2 kts 323°
2026-04-23 17:48 40.88155 14.28686 283 ft 2 kts 318°
2026-04-23 17:48 40.88142 14.28699 280 ft 2 kts 316°
2026-04-23 17:48 40.88131 14.28716 281 ft 2 kts 301°
2026-04-23 17:48 40.88124 14.28736 279 ft 2 kts 266°
2026-04-23 17:49 40.88125 14.28743 279 ft 0 kts 238°
2026-04-23 17:52 40.88046 14.28605 282 ft 12 kts 232°
2026-04-23 17:52 40.87992 14.28518 285 ft 12 kts 223°
2026-04-23 17:53 40.87943 14.28363 288 ft 9 kts 276°
2026-04-23 17:53 40.87950 14.28279 292 ft 9 kts 276°
2026-04-23 17:53 40.87959 14.28189 294 ft 10 kts 277°
2026-04-23 17:54 40.87943 14.28096 294 ft 11 kts 233°
2026-04-23 17:54 40.87897 14.28020 296 ft 10 kts 228°
2026-04-23 17:54 40.87870 14.27878 299 ft 9 kts 316°
2026-04-23 17:55 40.87989 14.27796 299 ft 10 kts 24°
2026-04-23 17:55 40.88038 14.27879 296 ft 15 kts 60°
2026-04-23 17:55 40.88170 14.28161 289 ft 71 kts 57°
2026-04-23 17:56 40.88558 14.28982 269 ft 137 kts 58°
2026-04-23 17:56 40.89708 14.31396 1499 ft 160 kts 56°
2026-04-23 17:56 40.90277 14.32597 2554 ft 149 kts 57°
2026-04-23 17:57 40.90824 14.33810 3268 ft 158 kts 56°
2026-04-23 17:57 40.91437 14.35111 3782 ft 182 kts 55°
2026-04-23 17:57 40.92913 14.38234 4719 ft 209 kts 54°
2026-04-23 17:58 40.93929 14.39591 5379 ft 211 kts 29°
2026-04-23 17:58 40.95386 14.40099 5824 ft 227 kts 359°
2026-04-23 17:58 40.96966 14.39529 6208 ft 254 kts 331°
2026-04-23 17:58 40.98250 14.37862 6956 ft 268 kts 303°
2026-04-23 17:59 40.98823 14.35475 7779 ft 280 kts 279°
2026-04-23 17:59 40.98837 14.32868 8605 ft 287 kts 270°
2026-04-23 17:59 40.98679 14.30206 9425 ft 293 kts 269°
2026-04-23 17:59 40.98486 14.27493 10192 ft 299 kts 269°
2026-04-23 18:00 40.98292 14.24685 10601 ft 318 kts 269°
2026-04-23 18:00 40.98101 14.21646 10792 ft 343 kts 269°
2026-04-23 18:00 40.97911 14.18402 11118 ft 361 kts 269°
2026-04-23 18:00 40.97722 14.15045 11754 ft 369 kts 269°
2026-04-23 18:01 40.97538 14.11645 12516 ft 372 kts 270°
2026-04-23 18:01 40.97356 14.08213 13274 ft 376 kts 270°
2026-04-23 18:01 40.97176 14.04736 14009 ft 381 kts 270°
2026-04-23 18:01 40.96996 14.01223 14667 ft 385 kts 270°
2026-04-23 18:02 40.96877 13.98881 15116 ft 387 kts 270°
2026-04-23 18:02 40.96632 13.94099 16015 ft 391 kts 270°
2026-04-23 18:02 40.96447 13.90480 16672 ft 395 kts 270°
2026-04-23 18:02 40.96259 13.86838 17321 ft 399 kts 269°
2026-04-23 18:03 40.96068 13.83155 17962 ft 403 kts 269°
2026-04-23 18:03 40.95873 13.79436 18572 ft 407 kts 269°
2026-04-23 18:03 40.95676 13.75680 19097 ft 411 kts 269°
2026-04-23 18:03 40.95476 13.71889 19612 ft 416 kts 269°
2026-04-23 18:04 40.95272 13.68056 20138 ft 420 kts 269°
2026-04-23 18:04 40.95064 13.64185 20661 ft 424 kts 269°
2026-04-23 18:04 40.94854 13.60278 21150 ft 428 kts 269°
2026-04-23 18:04 40.94640 13.56340 21643 ft 432 kts 269°
2026-04-23 18:05 40.94423 13.52356 22134 ft 436 kts 269°
2026-04-23 18:05 40.94202 13.48338 22612 ft 440 kts 269°
2026-04-23 18:05 40.93980 13.44337 23097 ft 444 kts 269°
2026-04-23 18:05 40.93753 13.40250 23563 ft 447 kts 269°
2026-04-23 18:06 40.93522 13.36127 23958 ft 451 kts 269°
2026-04-23 18:06 40.93288 13.31974 24372 ft 454 kts 269°
2026-04-23 18:06 40.93051 13.27805 24791 ft 456 kts 269°
2026-04-23 18:06 40.92811 13.23608 25202 ft 458 kts 268°
2026-04-23 18:07 40.92569 13.19395 25594 ft 461 kts 268°
2026-04-23 18:07 40.92324 13.15157 25967 ft 463 kts 268°
2026-04-23 18:07 40.92076 13.10894 26337 ft 466 kts 268°
2026-04-23 18:07 40.91826 13.06611 26714 ft 468 kts 268°
2026-04-23 18:08 40.91659 13.03767 26959 ft 470 kts 268°
2026-04-23 18:08 40.91816 12.98032 27371 ft 466 kts 287°
2026-04-23 18:08 40.92922 12.94059 27742 ft 458 kts 302°
2026-04-23 18:08 40.94721 12.90628 28105 ft 450 kts 317°
2026-04-23 18:09 40.96164 12.88661 28346 ft 449 kts 319°
2026-04-23 18:09 40.99109 12.84785 28754 ft 453 kts 320°
2026-04-23 18:09 41.01354 12.81844 29048 ft 456 kts 320°
2026-04-23 18:09 41.03600 12.78873 29372 ft 458 kts 319°
2026-04-23 18:10 41.05117 12.76850 29630 ft 458 kts 319°
2026-04-23 18:10 41.07349 12.73847 30115 ft 456 kts 319°
2026-04-23 18:10 41.09558 12.70854 30567 ft 453 kts 319°
2026-04-23 18:10 41.11755 12.67867 30953 ft 452 kts 319°
2026-04-23 18:11 41.13946 12.64881 31276 ft 452 kts 319°
2026-04-23 18:11 41.16100 12.61944 31603 ft 451 kts 319°
2026-04-23 18:11 41.18283 12.58962 31980 ft 450 kts 319°
2026-04-23 18:11 41.20458 12.55990 32362 ft 448 kts 319°
2026-04-23 18:12 41.22632 12.53018 32706 ft 447 kts 319°
2026-04-23 18:12 41.24799 12.50052 33020 ft 447 kts 318°
2026-04-23 18:12 41.26964 12.47088 33355 ft 446 kts 318°
2026-04-23 18:12 41.29121 12.44130 33696 ft 445 kts 318°
2026-04-23 18:13 41.31247 12.41213 34012 ft 445 kts 318°
2026-04-23 18:13 41.35587 12.35251 34094 ft 453 kts 318°
2026-04-23 18:14 41.39979 12.29203 34079 ft 453 kts 318°
2026-04-23 18:14 41.44344 12.23173 34079 ft 451 kts 318°
2026-04-23 18:15 41.48683 12.17170 34079 ft 449 kts 318°
2026-04-23 18:15 41.53008 12.11177 34082 ft 447 kts 318°
2026-04-23 18:16 41.57319 12.05189 34084 ft 447 kts 318°
2026-04-23 18:16 41.61656 11.99156 34102 ft 454 kts 317°
2026-04-23 18:17 41.68238 11.89968 34078 ft 453 kts 317°
2026-04-23 18:17 41.72573 11.83892 34089 ft 451 kts 317°
2026-04-23 18:18 41.76878 11.77809 34119 ft 450 kts 317°
2026-04-23 18:18 41.81180 11.71726 34116 ft 449 kts 317°
2026-04-23 18:19 41.85490 11.65656 34102 ft 449 kts 317°
2026-04-23 18:19 41.89777 11.59619 34106 ft 450 kts 317°
2026-04-23 18:20 41.94097 11.53519 34118 ft 451 kts 317°
2026-04-23 18:20 41.98423 11.47393 34116 ft 452 kts 317°
2026-04-23 18:21 42.02757 11.41242 34117 ft 453 kts 317°
2026-04-23 18:21 42.07096 11.35070 34126 ft 454 kts 317°
2026-04-23 18:22 42.11436 11.28884 34122 ft 455 kts 317°
2026-04-23 18:22 42.15780 11.22680 34128 ft 455 kts 317°
2026-04-23 18:23 42.22287 11.13360 34134 ft 455 kts 317°
2026-04-23 18:24 42.28786 11.04021 34136 ft 454 kts 316°
2026-04-23 18:25 42.35267 10.94679 34137 ft 454 kts 316°
2026-04-23 18:25 42.39579 10.88447 34144 ft 454 kts 316°
2026-04-23 18:26 42.43891 10.82201 34143 ft 453 kts 316°
2026-04-23 18:26 42.48191 10.75958 34143 ft 453 kts 316°
2026-04-23 18:27 42.52486 10.69710 34143 ft 453 kts 316°
2026-04-23 18:27 42.56774 10.63460 34144 ft 452 kts 316°
2026-04-23 18:28 42.61053 10.57206 34149 ft 452 kts 315°
2026-04-23 18:28 42.65327 10.50947 34148 ft 452 kts 315°
2026-04-23 18:29 42.69568 10.44724 34156 ft 451 kts 315°
2026-04-23 18:29 42.74080 10.38852 34149 ft 448 kts 327°
2026-04-23 18:30 42.79412 10.34628 34141 ft 435 kts 334°
2026-04-23 18:30 42.82038 10.32703 33907 ft 424 kts 334°
2026-04-23 18:30 42.84612 10.30814 33631 ft 417 kts 334°
2026-04-23 18:30 42.87137 10.28943 33348 ft 409 kts 334°
2026-04-23 18:31 42.89613 10.27093 33059 ft 403 kts 334°
2026-04-23 18:31 42.92075 10.25243 32404 ft 406 kts 334°
2026-04-23 18:31 42.94569 10.23363 31596 ft 413 kts 334°
2026-04-23 18:31 42.97098 10.21451 30797 ft 419 kts 333°
2026-04-23 18:32 42.99667 10.19505 29937 ft 425 kts 333°
2026-04-23 18:32 43.02269 10.17530 29107 ft 429 kts 333°
2026-04-23 18:32 43.04837 10.15574 28886 ft 418 kts 333°
2026-04-23 18:32 43.07409 10.13618 28448 ft 430 kts 333°
2026-04-23 18:33 43.10062 10.11601 27949 ft 439 kts 333°
2026-04-23 18:33 43.12739 10.09562 27445 ft 439 kts 333°
2026-04-23 18:33 43.15392 10.07536 26957 ft 435 kts 333°
2026-04-23 18:33 43.18029 10.05520 26471 ft 432 kts 333°
2026-04-23 18:34 43.20641 10.03522 25898 ft 428 kts 333°
2026-04-23 18:34 43.23228 10.01543 25385 ft 423 kts 333°
2026-04-23 18:34 43.25786 9.99585 24908 ft 420 kts 333°
2026-04-23 18:34 43.28329 9.97637 24452 ft 418 kts 333°
2026-04-23 18:35 43.30856 9.95698 24076 ft 415 kts 333°
2026-04-23 18:35 43.33376 9.93762 23611 ft 414 kts 333°
2026-04-23 18:35 43.35885 9.91833 23084 ft 413 kts 333°
2026-04-23 18:35 43.38385 9.89908 22618 ft 410 kts 333°
2026-04-23 18:36 43.40868 9.87995 22150 ft 408 kts 333°
2026-04-23 18:36 43.43335 9.86092 21694 ft 405 kts 333°
2026-04-23 18:36 43.45783 9.84202 21232 ft 402 kts 333°
2026-04-23 18:36 43.48216 9.82322 20778 ft 399 kts 333°
2026-04-23 18:37 43.50598 9.80480 20342 ft 396 kts 333°
2026-04-23 18:37 43.52994 9.78626 19892 ft 393 kts 333°
2026-04-23 18:37 43.55371 9.76785 19449 ft 391 kts 333°
2026-04-23 18:37 43.57731 9.74954 19024 ft 388 kts 333°
2026-04-23 18:38 43.60073 9.73137 18600 ft 385 kts 333°
2026-04-23 18:38 43.62402 9.71328 18118 ft 383 kts 333°
2026-04-23 18:38 43.64716 9.69529 17648 ft 380 kts 333°
2026-04-23 18:38 43.67011 9.67743 17199 ft 377 kts 333°
2026-04-23 18:39 43.69291 9.65966 16767 ft 374 kts 333°
2026-04-23 18:39 43.71552 9.64204 16334 ft 372 kts 333°
2026-04-23 18:39 43.73797 9.62453 15908 ft 370 kts 333°
2026-04-23 18:39 43.76032 9.60708 15488 ft 368 kts 333°
2026-04-23 18:40 43.78257 9.58969 15072 ft 366 kts 333°
2026-04-23 18:40 43.80470 9.57239 14653 ft 365 kts 333°
2026-04-23 18:40 43.82677 9.55512 14228 ft 364 kts 333°
2026-04-23 18:40 43.84877 9.53789 13789 ft 363 kts 333°
2026-04-23 18:41 43.87067 9.52072 13326 ft 361 kts 333°
2026-04-23 18:41 43.89239 9.50367 12887 ft 357 kts 333°
2026-04-23 18:41 43.91384 9.48682 12461 ft 352 kts 333°
2026-04-23 18:41 43.93502 9.47018 12048 ft 347 kts 333°
2026-04-23 18:42 43.95574 9.45387 11869 ft 337 kts 333°
2026-04-23 18:42 43.97575 9.43795 11718 ft 326 kts 330°
2026-04-23 18:42 43.99241 9.41715 11567 ft 322 kts 310°
2026-04-23 18:42 44.00500 9.39208 11454 ft 312 kts 307°
2026-04-23 18:43 44.01695 9.36738 11320 ft 304 kts 307°
2026-04-23 18:43 44.02867 9.34342 11213 ft 294 kts 308°
2026-04-23 18:43 44.04256 9.32358 11185 ft 282 kts 326°
2026-04-23 18:43 44.05821 9.30762 11174 ft 274 kts 331°
2026-04-23 18:44 44.07545 9.29907 11100 ft 257 kts 358°
2026-04-23 18:44 44.09253 9.30179 11023 ft 242 kts 21°
2026-04-23 18:44 44.10708 9.31207 10964 ft 229 kts 39°
2026-04-23 18:44 44.11789 9.32739 10795 ft 219 kts 51°
2026-04-23 18:45 44.12722 9.34417 10442 ft 219 kts 53°
2026-04-23 18:45 44.13656 9.36085 10105 ft 218 kts 44°
2026-04-23 18:45 44.15003 9.37016 9676 ft 222 kts
2026-04-23 18:45 44.16538 9.36773 9301 ft 227 kts 341°
2026-04-23 18:46 44.17904 9.35660 8940 ft 229 kts 327°
2026-04-23 18:46 44.19173 9.34314 8587 ft 229 kts 326°
2026-04-23 18:46 44.20431 9.32954 8236 ft 228 kts 326°
2026-04-23 18:46 44.21685 9.31604 7906 ft 227 kts 325°
2026-04-23 18:47 44.22936 9.30261 7573 ft 226 kts 326°
2026-04-23 18:47 44.24185 9.28931 7253 ft 225 kts 326°
2026-04-23 18:47 44.25432 9.27608 6927 ft 224 kts 326°
2026-04-23 18:47 44.26671 9.26295 6610 ft 223 kts 326°
2026-04-23 18:48 44.27906 9.24987 6279 ft 222 kts 326°
2026-04-23 18:48 44.29130 9.23691 6054 ft 220 kts 325°
2026-04-23 18:48 44.30353 9.22398 6026 ft 222 kts 325°
2026-04-23 18:48 44.31578 9.21102 6012 ft 220 kts 325°
2026-04-23 18:49 44.32821 9.19789 5690 ft 230 kts 324°
2026-04-23 18:49 44.33849 9.18101 5228 ft 232 kts 293°
2026-04-23 18:49 44.34329 9.15964 4815 ft 229 kts 287°
2026-04-23 18:49 44.34774 9.13880 4388 ft 224 kts 288°
2026-04-23 18:50 44.35079 9.12478 4105 ft 222 kts 288°
2026-04-23 18:50 44.35667 9.09805 3699 ft 210 kts 288°
2026-04-23 18:50 44.36086 9.07897 3422 ft 201 kts 287°
2026-04-23 18:50 44.36483 9.06064 3142 ft 194 kts 287°
2026-04-23 18:51 44.36870 9.04276 2881 ft 191 kts 287°
2026-04-23 18:51 44.37253 9.02510 2615 ft 188 kts 287°
2026-04-23 18:51 44.37625 9.00794 2349 ft 179 kts 287°
2026-04-23 18:51 44.37979 8.99165 2104 ft 171 kts 287°
2026-04-23 18:52 44.38314 8.97622 1853 ft 161 kts 287°
2026-04-23 18:52 44.38634 8.96152 1649 ft 159 kts 287°
2026-04-23 18:52 44.38953 8.94685 1417 ft 156 kts 287°
2026-04-23 18:52 44.39343 8.93267 1194 ft 158 kts 291°
2026-04-23 18:53 44.39711 8.91820 986 ft 157 kts 287°
2026-04-23 18:53 44.40005 8.90340 713 ft 160 kts 283°
2026-04-23 18:53 44.40280 8.88846 519 ft 157 kts 285°
2026-04-23 18:53 44.40583 8.87383 307 ft 156 kts 285°
2026-04-23 18:54 44.40859 8.85921 100 ft 155 kts 284°
2026-04-23 18:54 44.41134 8.84497 20 ft 137 kts 285°
2026-04-23 18:54 44.41329 8.83510 21 ft 74 kts 285°
2026-04-23 18:54 44.41401 8.83180 20 ft 11 kts 315°
2026-04-23 18:55 44.41451 8.83119 20 ft 16 kts 319°
2026-04-23 18:55 44.41512 8.83085 20 ft 8 kts
2026-04-23 18:55 44.41547 8.83141 19 ft 8 kts 76°
2026-04-23 18:55 44.41534 8.83248 19 ft 16 kts 105°
2026-04-23 18:56 44.41491 8.83446 19 ft 24 kts 104°
2026-04-23 18:56 44.41450 8.83663 20 ft 23 kts 106°
2026-04-23 18:56 44.41409 8.83873 20 ft 22 kts 104°
2026-04-23 18:56 44.41370 8.84077 20 ft 21 kts 106°
2026-04-23 18:57 44.41330 8.84274 19 ft 21 kts 104°
2026-04-23 18:57 44.41314 8.84357 19 ft 7 kts 105°
2026-04-23 18:57 44.41339 8.84450 20 ft 14 kts 53°
2026-04-23 18:57 44.41398 8.84559 19 ft 14 kts 54°
2026-04-23 18:58 44.41401 8.84689 19 ft 14 kts 105°
2026-04-23 18:58 44.41374 8.84833 19 ft 17 kts 105°
2026-04-23 18:58 44.41372 8.84932 21 ft 9 kts 69°
2026-04-23 18:58 44.41372 8.84988 19 ft 7 kts 98°
2026-04-23 18:59 44.41409 8.85036 19 ft 6 kts 13°
2026-04-23 18:59 44.41416 8.85038 19 ft 0 kts 14°